Weather History for KBDR - November, 2012

Change the Weather History Date:

Thursday, November 22, 2012

  Actual Average Record
Temperature  
Mean Temperature 45 °F 44 °F  
Max Temperature 53 °F 51 °F 64 °F (1983)
Min Temperature 36 °F 36 °F 18 °F (1987)
Degree Days  
Heating Degree Days 20 21  
Month to date heating degree days 455 399  
Since 1 July heating degree days 708 789  
Cooling Degree Days 0 0  
Month to date cooling degree days 0 0  
Year to date cooling degree days 1075 825  
Moisture  
Dew Point 37 °F    
Average Humidity 78    
Maximum Humidity 92    
Minimum Humidity 63    
Precipitation  
Precipitation 0.00 in 0.12 in 1.52 in (1991)
Month to date precipitation 0.75 2.42  
Year to date precipitation 36.20 38.44  
Snow  
Snow 0.00 in 0.00 in 0.40 in (1989)
Month to date snowfall 8.3 0.3  
Since 1 July snowfall 8.3 0.3  
Snow Depth 0.00 in    
Sea Level Pressure  
Sea Level Pressure 30.22 in    
Wind  
Wind Speed 5 mph (NNE)    
Max Wind Speed 9 mph    
Max Gust Speed 12 mph    
Visibility 9 miles    
Events      
T = Trace of Precipitation, MM = Missing Value Source: NWS Daily Summary

Daily Weather History Graph

Daily Weather History Graph

Search for Another Location

Airport or City:

Trip Planner

Search our weather history database for the weather conditions in past years. The results will help you decide how hot, cold, wet, or windy it might be!

Date:

Astronomy

Nov. 22, 2012 Rise Set
Actual Time 6:49 AM EST 4:28 PM EST
Civil Twilight 6:19 AM EST 4:58 PM EST
Nautical Twilight 5:45 AM EST 5:31 PM EST
Astronomical Twilight 5:12 AM EST 6:04 PM EST
Moon 1:14 PM EST (11/22) 1:03 AM EST (11/22)
Length of Visible Light 10h 39m
Length of Day
9h 38m
Waxing Gibbous, 71% of the Moon is Illuminated
Nov 22
Waxing Gibbous
Nov 28
Full
Dec 6
Last Quarter
Dec 13
New
Dec 20
First Quarter

Hourly Weather History & Observations

Time (EST) Temp. Windchill Dew Point Humidity Pressure Visibility Wind Dir Wind Speed Gust Speed Precip Events Conditions
12:52 AM 39.9 °F 35.1 °F 33.1 °F 77% 30.23 in 10.0 mi North 6.9 mph - N/A   Clear
1:52 AM 39.9 °F 35.1 °F 33.1 °F 77% 30.24 in 10.0 mi North 6.9 mph - N/A   Clear
2:52 AM 39.9 °F 34.5 °F 33.1 °F 77% 30.23 in 10.0 mi North 8.1 mph - N/A   Clear
3:52 AM 39.0 °F 34.0 °F 34.0 °F 82% 30.23 in 10.0 mi North 6.9 mph - N/A   Clear
4:52 AM 39.0 °F 33.4 °F 34.0 °F 82% 30.24 in 10.0 mi North 8.1 mph - N/A   Clear
5:52 AM 37.9 °F 32.7 °F 33.1 °F 83% 30.25 in 10.0 mi NNE 6.9 mph - N/A   Clear
6:52 AM 37.9 °F 33.5 °F 34.0 °F 86% 30.25 in 10.0 mi NNE 5.8 mph - N/A   Clear
7:52 AM 39.9 °F 35.1 °F 35.1 °F 83% 30.26 in 10.0 mi North 6.9 mph - N/A   Clear
8:52 AM 45.0 °F 41.2 °F 37.0 °F 74% 30.27 in 10.0 mi NNE 6.9 mph - N/A   Clear
9:52 AM 48.9 °F - 37.9 °F 66% 30.27 in 10.0 mi North 5.8 mph - N/A   Clear
10:52 AM 51.1 °F - 39.9 °F 66% 30.26 in 10.0 mi ENE 6.9 mph - N/A   Clear
11:52 AM 52.0 °F - 39.9 °F 63% 30.24 in 10.0 mi East 8.1 mph - N/A   Clear
12:52 PM 52.0 °F - 39.9 °F 63% 30.22 in 10.0 mi ESE 8.1 mph - N/A   Clear
1:52 PM 51.1 °F - 42.1 °F 71% 30.20 in 10.0 mi South 6.9 mph - N/A   Clear
2:52 PM 51.1 °F - 42.1 °F 71% 30.19 in 10.0 mi SSW 5.8 mph - N/A   Clear
3:52 PM 50.0 °F - 42.1 °F 74% 30.19 in 10.0 mi SW 4.6 mph - N/A   Clear
4:52 PM 48.0 °F - 42.1 °F 80% 30.20 in 10.0 mi Calm Calm - N/A   Clear
5:52 PM 43.0 °F - 39.0 °F 86% 30.20 in 10.0 mi Calm Calm - N/A   Clear
6:52 PM 43.0 °F - 37.9 °F 82% 30.19 in 10.0 mi Calm Calm - N/A   Clear
7:52 PM 39.9 °F - 37.9 °F 93% 30.18 in 10.0 mi Calm Calm - N/A   Clear
8:52 PM 39.9 °F - 37.9 °F 93% 30.18 in 6.0 mi Calm Calm - N/A   Clear
9:52 PM 39.0 °F - 37.0 °F 93% 30.17 in 6.0 mi Calm Calm - N/A   Clear
10:52 PM 37.0 °F - 36.0 °F 96% 30.15 in 4.0 mi Calm Calm - N/A   Clear
11:52 PM 37.0 °F - 36.0 °F 96% 30.14 in 5.0 mi Calm Calm - N/A   Clear